| time (UTC) | temp F | wind direction | speed MPH | gust MPH | rain 1hr in | rain 24hr in | rain mn in | humidity % | barometer mb |
| 20260508190521 | 69 | 211 | 10.0 | 17.0 | 0.00 | 0.00 | 0.00 | 44 | 1012.2 |
| 20260508190021 | 69 | 225 | 10.0 | 17.0 | 0.00 | 0.00 | 0.00 | 44 | 1012.4 |
| 20260508185522 | 69 | 213 | 9.0 | 17.0 | 0.00 | 0.00 | 0.00 | 46 | 1012.6 |
| 20260508185019 | 69 | 257 | 11.0 | 16.0 | 0.00 | 0.00 | 0.00 | 45 | 1012.6 |
| 20260508184525 | 68 | 188 | 8.0 | 21.0 | 0.00 | 0.00 | 0.00 | 47 | 1012.6 |
| 20260508184018 | 68 | 192 | 14.0 | 21.0 | 0.00 | 0.00 | 0.00 | 48 | 1012.7 |
| 20260508183517 | 69 | 251 | 8.0 | 17.0 | 0.00 | 0.00 | 0.00 | 48 | 1012.7 |
| 20260508183016 | 68 | 252 | 10.0 | 22.0 | 0.00 | 0.00 | 0.00 | 44 | 1012.8 |
| 20260508182516 | 68 | 252 | 14.0 | 22.0 | 0.00 | 0.00 | 0.00 | 45 | 1012.9 |
| 20260508182015 | 68 | 244 | 7.0 | 19.0 | 0.00 | 0.00 | 0.00 | 46 | 1012.9 |
| 20260508181514 | 68 | 254 | 10.0 | 19.0 | 0.00 | 0.00 | 0.00 | 45 | 1013.0 |
| 20260508181016 | 68 | 211 | 11.0 | 21.0 | 0.00 | 0.00 | 0.00 | 47 | 1013.2 |
| 20260508180512 | 68 | 213 | 13.0 | 22.0 | 0.00 | 0.00 | 0.00 | 48 | 1013.3 |
| 20260508180013 | 68 | 184 | 11.0 | 22.0 | 0.00 | 0.00 | 0.00 | 50 | 1013.3 |
| 20260508175512 | 67 | 227 | 6.0 | 20.0 | 0.00 | 0.00 | 0.00 | 47 | 1013.4 |
| 20260508175012 | 68 | 235 | 11.0 | 20.0 | 0.00 | 0.00 | 0.00 | 47 | 1013.5 |
| 20260508174511 | 68 | 218 | 10.0 | 17.0 | 0.00 | 0.00 | 0.00 | 45 | 1013.5 |
| 20260508174016 | 68 | 258 | 8.0 | 16.0 | 0.00 | 0.00 | 0.00 | 47 | 1013.5 |
| 20260508173509 | 68 | 214 | 11.0 | 16.0 | 0.00 | 0.00 | 0.00 | 47 | 1013.6 |
| 20260508173007 | 67 | 248 | 9.0 | 20.0 | 0.00 | 0.00 | 0.00 | 46 | 1013.9 |
| 20260508172506 | 67 | 225 | 12.0 | 20.0 | 0.00 | 0.00 | 0.00 | 46 | 1014.0 |
| 20260508172006 | 67 | 246 | 11.0 | 22.0 | 0.00 | 0.00 | 0.00 | 44 | 1014.0 |
| 20260508171509 | 67 | 216 | 12.0 | 22.0 | 0.00 | 0.00 | 0.00 | 46 | 1014.2 |
| 20260508171005 | 67 | 206 | 11.0 | 20.0 | 0.00 | 0.00 | 0.00 | 49 | 1014.3 |
| 20260508170503 | 67 | 219 | 7.0 | 21.0 | 0.00 | 0.00 | 0.00 | 44 | 1014.4 |
| 20260508170002 | 67 | 242 | 12.0 | 21.0 | 0.00 | 0.00 | 0.00 | 46 | 1014.5 |
| 20260508165502 | 67 | 276 | 7.0 | 17.0 | 0.00 | 0.00 | 0.00 | 50 | 1014.6 |
| 20260508165100 | 67 | 202 | 6.0 | 18.0 | 0.00 | 0.00 | 0.00 | 49 | 1014.8 |
| 20260508164559 | 67 | 261 | 9.0 | 19.0 | 0.00 | 0.00 | 0.00 | 47 | 1014.8 |
| 20260508164100 | 66 | 261 | 8.0 | 21.0 | 0.00 | 0.00 | 0.00 | 47 | 1014.9 |
| 20260508163557 | 66 | 215 | 10.0 | 21.0 | 0.00 | 0.00 | 0.00 | 48 | 1014.9 |
| 20260508163056 | 67 | 259 | 7.0 | 15.0 | 0.00 | 0.00 | 0.00 | 47 | 1015.0 |
| 20260508162555 | 66 | 273 | 7.0 | 16.0 | 0.00 | 0.00 | 0.00 | 52 | 1015.2 |
| 20260508162055 | 66 | 276 | 7.0 | 16.0 | 0.00 | 0.00 | 0.00 | 49 | 1015.1 |
| 20260508161552 | 66 | 281 | 10.0 | 15.0 | 0.00 | 0.00 | 0.00 | 47 | 1015.1 |
| 20260508161051 | 66 | 207 | 8.0 | 15.0 | 0.00 | 0.00 | 0.00 | 48 | 1015.3 |
| 20260508160556 | 65 | 242 | 8.0 | 16.0 | 0.00 | 0.00 | 0.00 | 49 | 1015.3 |
| 20260508160048 | 65 | 258 | 8.0 | 16.0 | 0.00 | 0.00 | 0.00 | 48 | 1015.3 |
| 20260508155551 | 65 | 223 | 7.0 | 15.0 | 0.00 | 0.00 | 0.00 | 51 | 1015.4 |
| 20260508155047 | 65 | 200 | 10.0 | 15.0 | 0.00 | 0.00 | 0.00 | 52 | 1015.4 |
| 20260508154545 | 64 | 254 | 8.0 | 13.0 | 0.00 | 0.00 | 0.00 | 50 | 1015.5 |
| 20260508154043 | 64 | 243 | 7.0 | 14.0 | 0.00 | 0.00 | 0.00 | 50 | 1015.5 |
| 20260508153542 | 64 | 214 | 10.0 | 16.0 | 0.00 | 0.00 | 0.00 | 49 | 1015.7 |
| 20260508153041 | 64 | 261 | 8.0 | 16.0 | 0.00 | 0.00 | 0.00 | 50 | 1015.9 |
| 20260508152544 | 64 | 254 | 8.0 | 14.0 | 0.00 | 0.00 | 0.00 | 52 | 1015.8 |
| 20260508152038 | 64 | 259 | 8.0 | 18.0 | 0.00 | 0.00 | 0.00 | 55 | 1015.9 |
| 20260508151544 | 63 | 260 | 11.0 | 18.0 | 0.00 | 0.00 | 0.00 | 51 | 1016.0 |
| 20260508151034 | 63 | 257 | 7.0 | 12.0 | 0.00 | 0.00 | 0.00 | 56 | 1016.0 |
| 20260508150533 | 62 | 284 | 8.0 | 16.0 | 0.00 | 0.00 | 0.00 | 52 | 1016.1 |
| 20260508150039 | 63 | 215 | 10.0 | 16.0 | 0.00 | 0.00 | 0.00 | 53 | 1016.1 |
| 20260508145533 | 62 | 216 | 9.0 | 17.0 | 0.00 | 0.00 | 0.00 | 53 | 1016.2 |
| 20260508145030 | 61 | 257 | 7.0 | 18.0 | 0.00 | 0.00 | 0.00 | 54 | 1016.1 |
| 20260508144540 | 61 | 284 | 11.0 | 19.0 | 0.00 | 0.00 | 0.00 | 53 | 1016.2 |
| 20260508144027 | 61 | 275 | 9.0 | 16.0 | 0.00 | 0.00 | 0.00 | 53 | 1016.3 |
| 20260508143526 | 61 | 267 | 8.0 | 13.0 | 0.00 | 0.00 | 0.00 | 56 | 1016.2 |
| 20260508143034 | 60 | 190 | 10.0 | 15.0 | 0.00 | 0.00 | 0.00 | 55 | 1016.2 |
| 20260508142522 | 60 | 263 | 7.0 | 15.0 | 0.00 | 0.00 | 0.00 | 57 | 1016.3 |
| 20260508142021 | 59 | 248 | 6.0 | 16.0 | 0.00 | 0.00 | 0.00 | 59 | 1016.3 |
| 20260508141525 | 59 | 206 | 6.0 | 16.0 | 0.00 | 0.00 | 0.00 | 58 | 1016.3 |
| 20260508141017 | 58 | 221 | 6.0 | 16.0 | 0.00 | 0.00 | 0.00 | 57 | 1016.3 |
| 20260508140516 | 58 | 236 | 7.0 | 13.0 | 0.00 | 0.00 | 0.00 | 60 | 1016.3 |
| 20260508140015 | 57 | 224 | 8.0 | 14.0 | 0.00 | 0.00 | 0.00 | 57 | 1016.3 |
| 20260508135513 | 57 | 228 | 8.0 | 14.0 | 0.00 | 0.00 | 0.00 | 57 | 1016.3 |
| 20260508135011 | 56 | 213 | 7.0 | 11.0 | 0.00 | 0.00 | 0.00 | 57 | 1016.3 |
| 20260508134510 | 56 | 277 | 9.0 | 18.0 | 0.00 | 0.00 | 0.00 | 59 | 1016.4 |
| 20260508134009 | 56 | 208 | 8.0 | 13.0 | 0.00 | 0.00 | 0.00 | 61 | 1016.4 |
| 20260508133508 | 55 | 253 | 8.0 | 12.0 | 0.00 | 0.00 | 0.00 | 60 | 1016.3 |
| 20260508133007 | 55 | 249 | 7.0 | 13.0 | 0.00 | 0.00 | 0.00 | 61 | 1016.3 |
| 20260508132504 | 54 | 248 | 8.0 | 13.0 | 0.00 | 0.00 | 0.00 | 62 | 1016.3 |
| 20260508132003 | 54 | 222 | 7.0 | 12.0 | 0.00 | 0.00 | 0.00 | 64 | 1016.3 |
| 20260508131503 | 53 | 240 | 7.0 | 12.0 | 0.00 | 0.00 | 0.00 | 65 | 1016.3 |
| 20260508131100 | 53 | 213 | 6.0 | 11.0 | 0.00 | 0.00 | 0.00 | 66 | 1016.3 |
| 20260508130600 | 52 | 224 | 4.0 | 11.0 | 0.00 | 0.00 | 0.00 | 67 | 1016.2 |
| 20260508130057 | 51 | 253 | 5.0 | 9.0 | 0.00 | 0.00 | 0.00 | 68 | 1016.3 |
| 20260508125555 | 51 | 247 | 6.0 | 10.0 | 0.00 | 0.00 | 0.00 | 68 | 1016.3 |
| 20260508125054 | 50 | 256 | 5.0 | 10.0 | 0.00 | 0.00 | 0.00 | 70 | 1016.2 |
| 20260508124559 | 49 | 257 | 5.0 | 9.0 | 0.00 | 0.00 | 0.00 | 71 | 1016.3 |
| 20260508124053 | 49 | 252 | 5.0 | 9.0 | 0.00 | 0.00 | 0.00 | 72 | 1016.3 |
| 20260508123549 | 48 | 244 | 5.0 | 10.0 | 0.00 | 0.00 | 0.00 | 72 | 1016.2 |
| 20260508123048 | 47 | 235 | 5.0 | 10.0 | 0.00 | 0.00 | 0.00 | 73 | 1016.2 |
| 20260508122547 | 47 | 217 | 5.0 | 11.0 | 0.00 | 0.00 | 0.00 | 73 | 1016.3 |
| 20260508122047 | 46 | 223 | 6.0 | 10.0 | 0.00 | 0.00 | 0.00 | 73 | 1016.2 |
| 20260508121548 | 46 | 223 | 6.0 | 11.0 | 0.00 | 0.00 | 0.00 | 73 | 1016.2 |
| 20260508121046 | 46 | 239 | 7.0 | 12.0 | 0.00 | 0.00 | 0.00 | 73 | 1016.2 |
| 20260508120545 | 46 | 208 | 6.0 | 11.0 | 0.00 | 0.00 | 0.00 | 73 | 1016.2 |
| 20260508120046 | 45 | 247 | 6.0 | 11.0 | 0.00 | 0.00 | 0.00 | 73 | 1016.2 |
| 20260508115544 | 45 | 246 | 5.0 | 14.0 | 0.00 | 0.00 | 0.00 | 73 | 1016.1 |
| 20260508115043 | 45 | 236 | 7.0 | 14.0 | 0.00 | 0.00 | 0.00 | 74 | 1016.0 |
| 20260508114543 | 45 | 198 | 5.0 | 11.0 | 0.00 | 0.00 | 0.00 | 74 | 1016.0 |
| 20260508114042 | 44 | 223 | 5.0 | 11.0 | 0.00 | 0.00 | 0.00 | 75 | 1016.0 |
| 20260508113541 | 44 | 224 | 6.0 | 11.0 | 0.00 | 0.00 | 0.00 | 75 | 1016.0 |
| 20260508113105 | 44 | 230 | 3.0 | 9.0 | 0.00 | 0.00 | 0.00 | 75 | 1016.0 |
| 20260508112542 | 44 | 228 | 6.0 | 9.0 | 0.00 | 0.00 | 0.00 | 75 | 1015.9 |
| 20260508112039 | 44 | 217 | 5.0 | 10.0 | 0.00 | 0.00 | 0.00 | 75 | 1015.9 |
| 20260508111538 | 44 | 222 | 5.0 | 10.0 | 0.00 | 0.00 | 0.00 | 74 | 1015.8 |
| 20260508111037 | 44 | 221 | 6.0 | 9.0 | 0.00 | 0.00 | 0.00 | 75 | 1015.8 |
| 20260508110537 | 43 | 215 | 6.0 | 9.0 | 0.00 | 0.00 | 0.00 | 75 | 1015.8 |
| 20260508110036 | 43 | 219 | 5.0 | 10.0 | 0.00 | 0.00 | 0.00 | 75 | 1015.8 |
| 20260508105536 | 43 | 233 | 6.0 | 10.0 | 0.00 | 0.00 | 0.00 | 75 | 1015.8 |
| 20260508105035 | 43 | 232 | 5.0 | 10.0 | 0.00 | 0.00 | 0.00 | 74 | 1015.8 |
| 20260508104545 | 43 | 215 | 6.0 | 10.0 | 0.00 | 0.00 | 0.00 | 74 | 1015.7 |
| 20260508104033 | 43 | 218 | 6.0 | 9.0 | 0.00 | 0.00 | 0.00 | 74 | 1015.6 |
| 20260508103533 | 43 | 201 | 6.0 | 9.0 | 0.00 | 0.00 | 0.00 | 74 | 1015.6 |
| 20260508103032 | 43 | 202 | 6.0 | 10.0 | 0.00 | 0.00 | 0.00 | 74 | 1015.6 |
| 20260508102532 | 44 | 213 | 4.0 | 10.0 | 0.00 | 0.00 | 0.00 | 74 | 1015.6 |
| 20260508102031 | 44 | 221 | 6.0 | 10.0 | 0.00 | 0.00 | 0.00 | 73 | 1015.6 |
| 20260508101537 | 44 | 198 | 6.0 | 9.0 | 0.00 | 0.00 | 0.00 | 73 | 1015.6 |
| 20260508101031 | 44 | 203 | 6.0 | 9.0 | 0.00 | 0.00 | 0.00 | 73 | 1015.6 |
| 20260508100528 | 44 | 203 | 5.0 | 9.0 | 0.00 | 0.00 | 0.00 | 74 | 1015.6 |
| 20260508100036 | 44 | 218 | 5.0 | 9.0 | 0.00 | 0.00 | 0.00 | 74 | 1015.6 |
| 20260508095528 | 44 | 215 | 5.0 | 8.0 | 0.00 | 0.00 | 0.00 | 74 | 1015.6 |
| 20260508095027 | 43 | 214 | 5.0 | 8.0 | 0.00 | 0.00 | 0.00 | 75 | 1015.6 |
| 20260508094526 | 43 | 216 | 4.0 | 7.0 | 0.00 | 0.00 | 0.00 | 75 | 1015.5 |
| 20260508094026 | 43 | 224 | 3.0 | 6.0 | 0.00 | 0.00 | 0.00 | 75 | 1015.5 |
| 20260508093527 | 43 | 217 | 4.0 | 6.0 | 0.00 | 0.00 | 0.00 | 76 | 1015.5 |
| 20260508093025 | 43 | 225 | 3.0 | 6.0 | 0.00 | 0.00 | 0.00 | 76 | 1015.4 |
| 20260508092526 | 43 | 219 | 2.0 | 5.0 | 0.00 | 0.00 | 0.00 | 76 | 1015.6 |
| 20260508092024 | 43 | 236 | 2.0 | 7.0 | 0.00 | 0.00 | 0.00 | 76 | 1015.5 |
| 20260508091526 | 43 | 236 | 2.0 | 7.0 | 0.00 | 0.00 | 0.00 | 76 | 1015.5 |
| 20260508091023 | 43 | 250 | 3.0 | 7.0 | 0.00 | 0.00 | 0.00 | 76 | 1015.5 |
| 20260508090521 | 43 | 238 | 2.0 | 4.0 | 0.00 | 0.00 | 0.00 | 76 | 1015.5 |
| 20260508090019 | 43 | 238 | 2.0 | 5.0 | 0.00 | 0.00 | 0.00 | 75 | 1015.5 |
| 20260508085518 | 43 | 238 | 3.0 | 5.0 | 0.00 | 0.00 | 0.00 | 75 | 1015.5 |
| 20260508085017 | 43 | 238 | 2.0 | 4.0 | 0.00 | 0.00 | 0.00 | 75 | 1015.5 |
| 20260508084516 | 44 | 237 | 2.0 | 4.0 | 0.00 | 0.00 | 0.00 | 74 | 1015.4 |
| 20260508084016 | 44 | 237 | 2.0 | 5.0 | 0.00 | 0.00 | 0.00 | 74 | 1015.3 |
| 20260508083514 | 44 | 238 | 2.0 | 6.0 | 0.00 | 0.00 | 0.00 | 73 | 1015.3 |
| 20260508083014 | 44 | 227 | 3.0 | 6.0 | 0.00 | 0.00 | 0.00 | 73 | 1015.3 |
| 20260508082520 | 45 | 226 | 3.0 | 6.0 | 0.00 | 0.00 | 0.00 | 72 | 1015.1 |
| 20260508082012 | 45 | 216 | 4.0 | 6.0 | 0.00 | 0.00 | 0.00 | 72 | 1015.2 |
| 20260508081514 | 45 | 218 | 3.0 | 6.0 | 0.00 | 0.00 | 0.00 | 71 | 1015.2 |
| 20260508081010 | 45 | 221 | 2.0 | 7.0 | 0.00 | 0.00 | 0.00 | 71 | 1015.2 |
| 20260508080510 | 45 | 223 | 2.0 | 6.0 | 0.00 | 0.00 | 0.00 | 71 | 1015.1 |
| 20260508080010 | 45 | 225 | 3.0 | 7.0 | 0.00 | 0.00 | 0.00 | 70 | 1015.2 |
| 20260508075512 | 45 | 266 | 3.0 | 8.0 | 0.00 | 0.00 | 0.00 | 70 | 1015.1 |
| 20260508075011 | 45 | 243 | 4.0 | 8.0 | 0.00 | 0.00 | 0.00 | 70 | 1015.2 |
| 20260508074515 | 45 | 247 | 3.0 | 8.0 | 0.00 | 0.00 | 0.00 | 71 | 1015.2 |
| 20260508074007 | 45 | 243 | 3.0 | 6.0 | 0.00 | 0.00 | 0.00 | 71 | 1015.2 |
| 20260508073509 | 45 | 244 | 4.0 | 7.0 | 0.00 | 0.00 | 0.00 | 71 | 1015.4 |
| 20260508073006 | 45 | 240 | 4.0 | 7.0 | 0.00 | 0.00 | 0.00 | 71 | 1015.4 |
| 20260508072607 | 45 | 250 | 3.0 | 7.0 | 0.00 | 0.00 | 0.00 | 70 | 1015.4 |
| 20260508072007 | 45 | 240 | 3.0 | 5.0 | 0.00 | 0.00 | 0.00 | 70 | 1015.4 |
| 20260508071505 | 45 | 239 | 3.0 | 6.0 | 0.00 | 0.00 | 0.00 | 70 | 1015.4 |
| 20260508071003 | 45 | 236 | 3.0 | 6.0 | 0.00 | 0.00 | 0.00 | 70 | 1015.4 |
| 20260508070503 | 45 | 230 | 3.0 | 5.0 | 0.00 | 0.00 | 0.00 | 70 | 1015.4 |
| 20260508070003 | 45 | 228 | 2.0 | 5.0 | 0.00 | 0.00 | 0.00 | 70 | 1015.5 |
| 20260508065502 | 45 | 233 | 2.0 | 5.0 | 0.00 | 0.00 | 0.00 | 70 | 1015.5 |
| 20260508065002 | 46 | 233 | 2.0 | 5.0 | 0.00 | 0.00 | 0.00 | 70 | 1015.6 |
| 20260508064507 | 45 | 232 | 3.0 | 5.0 | 0.00 | 0.00 | 0.00 | 70 | 1015.6 |
| 20260508064003 | 45 | 232 | 3.0 | 5.0 | 0.00 | 0.00 | 0.00 | 70 | 1015.6 |
| 20260508063600 | 45 | 232 | 3.0 | 5.0 | 0.00 | 0.00 | 0.00 | 70 | 1015.7 |
| 20260508063100 | 45 | 231 | 3.0 | 5.0 | 0.00 | 0.00 | 0.00 | 70 | 1015.6 |
| 20260508062559 | 45 | 230 | 3.0 | 5.0 | 0.00 | 0.00 | 0.00 | 70 | 1015.8 |
| 20260508062100 | 45 | 226 | 3.0 | 5.0 | 0.00 | 0.00 | 0.00 | 71 | 1015.7 |
| 20260508061603 | 45 | 238 | 3.0 | 5.0 | 0.00 | 0.00 | 0.00 | 71 | 1015.7 |
| 20260508061059 | 45 | 239 | 3.0 | 6.0 | 0.00 | 0.00 | 0.00 | 71 | 1015.7 |
| 20260508060559 | 45 | 227 | 3.0 | 6.0 | 0.00 | 0.00 | 0.00 | 71 | 1015.7 |
| 20260508060101 | 45 | 247 | 3.0 | 5.0 | 0.00 | 0.00 | 0.00 | 71 | 1015.8 |
| 20260508055557 | 46 | 248 | 3.0 | 7.0 | 0.00 | 0.00 | 0.00 | 70 | 1015.8 |
| 20260508055056 | 46 | 248 | 3.0 | 7.0 | 0.00 | 0.00 | 0.00 | 70 | 1015.7 |
| 20260508054623 | 46 | 238 | 3.0 | 5.0 | 0.00 | 0.00 | 0.00 | 69 | 1015.7 |
| 20260508054057 | 46 | 236 | 2.0 | 5.0 | 0.00 | 0.00 | 0.00 | 68 | 1015.7 |
| 20260508053553 | 47 | 224 | 3.0 | 5.0 | 0.00 | 0.00 | 0.00 | 67 | 1015.6 |
| 20260508053052 | 47 | 222 | 3.0 | 5.0 | 0.00 | 0.00 | 0.00 | 66 | 1015.6 |
| 20260508052558 | 47 | 213 | 2.0 | 6.0 | 0.00 | 0.00 | 0.00 | 66 | 1015.7 |
| 20260508052055 | 48 | 209 | 4.0 | 6.0 | 0.00 | 0.00 | 0.00 | 65 | 1015.6 |
| 20260508051549 | 48 | 209 | 3.0 | 5.0 | 0.00 | 0.00 | 0.00 | 65 | 1015.6 |
| 20260508051049 | 48 | 209 | 3.0 | 6.0 | 0.00 | 0.00 | 0.00 | 65 | 1015.6 |
| 20260508050549 | 48 | 209 | 4.0 | 6.0 | 0.00 | 0.00 | 0.00 | 64 | 1015.6 |
| 20260508050047 | 48 | 237 | 4.0 | 5.0 | 0.00 | 0.00 | 0.00 | 64 | 1015.7 |
| 20260508045546 | 48 | 247 | 3.0 | 5.0 | 0.00 | 0.00 | 0.00 | 64 | 1015.7 |
| 20260508045046 | 48 | 257 | 2.0 | 4.0 | 0.00 | 0.00 | 0.00 | 64 | 1015.8 |
| 20260508044546 | 48 | 258 | 2.0 | 4.0 | 0.00 | 0.00 | 0.00 | 65 | 1015.8 |
| 20260508044046 | 48 | 259 | 2.0 | 3.0 | 0.00 | 0.00 | 0.00 | 65 | 1015.9 |
| 20260508043547 | 48 | 259 | 2.0 | 3.0 | 0.00 | 0.00 | 0.00 | 65 | 1016.0 |
| 20260508043050 | 48 | 259 | 1.0 | 3.0 | 0.00 | 0.00 | 0.00 | 65 | 1016.0 |
| 20260508042546 | 48 | 259 | 2.0 | 4.0 | 0.00 | 0.00 | 0.00 | 65 | 1015.9 |
| 20260508042044 | 48 | 259 | 1.0 | 3.0 | 0.00 | 0.00 | 0.00 | 65 | 1015.9 |
| 20260508041542 | 48 | 259 | 1.0 | 4.0 | 0.00 | 0.00 | 0.00 | 64 | 1016.0 |
| 20260508041045 | 48 | 259 | 1.0 | 4.0 | 0.00 | 0.00 | 0.00 | 63 | 1015.9 |
| 20260508040541 | 48 | 259 | 1.0 | 3.0 | 0.00 | 0.00 | 0.00 | 62 | 1015.7 |
| 20260508040048 | 49 | 259 | 1.0 | 3.0 | 0.00 | 0.00 | 0.00 | 62 | 1015.7 |
| 20260508035544 | 49 | 259 | 1.0 | 4.0 | 0.00 | 0.00 | 0.00 | 61 | 1015.9 |
| 20260508035039 | 49 | 259 | 2.0 | 4.0 | 0.00 | 0.00 | 0.00 | 61 | 1015.8 |
| 20260508034540 | 49 | 260 | 1.0 | 3.0 | 0.00 | 0.00 | 0.00 | 61 | 1015.7 |
| 20260508034038 | 50 | 260 | 1.0 | 4.0 | 0.00 | 0.00 | 0.00 | 60 | 1015.8 |
| 20260508033538 | 50 | 260 | 2.0 | 4.0 | 0.00 | 0.00 | 0.00 | 60 | 1015.9 |
| 20260508033038 | 50 | 261 | 1.0 | 3.0 | 0.00 | 0.00 | 0.00 | 58 | 1015.9 |
| 20260508032638 | 51 | 261 | 0.0 | 4.0 | 0.00 | 0.00 | 0.00 | 58 | 1015.9 |
| 20260508032038 | 51 | 261 | 1.0 | 4.0 | 0.00 | 0.00 | 0.00 | 57 | 1015.9 |
| 20260508031549 | 51 | 261 | 1.0 | 4.0 | 0.00 | 0.00 | 0.00 | 56 | 1015.8 |
| 20260508031037 | 51 | 261 | 2.0 | 4.0 | 0.00 | 0.00 | 0.00 | 56 | 1015.8 |
| 20260508030538 | 50 | 262 | 2.0 | 6.0 | 0.00 | 0.00 | 0.00 | 57 | 1015.8 |
| 20260508030038 | 50 | 263 | 2.0 | 6.0 | 0.00 | 0.00 | 0.00 | 57 | 1015.9 |
| 20260508025537 | 50 | 296 | 2.0 | 4.0 | 0.00 | 0.00 | 0.00 | 57 | 1016.0 |
| 20260508025037 | 50 | 297 | 2.0 | 3.0 | 0.00 | 0.00 | 0.00 | 58 | 1016.1 |
| 20260508024538 | 50 | 297 | 2.0 | 4.0 | 0.00 | 0.00 | 0.00 | 57 | 1016.0 |
| 20260508024036 | 50 | 315 | 2.0 | 3.0 | 0.00 | 0.00 | 0.00 | 58 | 1016.0 |
| 20260508023535 | 49 | 315 | 1.0 | 3.0 | 0.00 | 0.00 | 0.00 | 57 | 1015.9 |
| 20260508023035 | 49 | 315 | 1.0 | 3.0 | 0.00 | 0.00 | 0.00 | 58 | 1016.0 |
| 20260508022536 | 49 | 315 | 1.0 | 3.0 | 0.00 | 0.00 | 0.00 | 58 | 1016.0 |
| 20260508022035 | 50 | 315 | 0.0 | 2.0 | 0.00 | 0.00 | 0.00 | 57 | 1015.9 |
| 20260508021537 | 50 | 315 | 0.0 | 2.0 | 0.00 | 0.00 | 0.00 | 57 | 1016.1 |
| 20260508021035 | 50 | 315 | 0.0 | 2.0 | 0.00 | 0.00 | 0.00 | 56 | 1016.0 |
| 20260508020537 | 50 | 315 | 0.0 | 1.0 | 0.00 | 0.00 | 0.00 | 57 | 1015.8 |
| 20260508020034 | 51 | 315 | 0.0 | 0.0 | 0.00 | 0.00 | 0.00 | 56 | 1015.8 |
| 20260508015534 | 51 | 315 | 0.0 | 1.0 | 0.00 | 0.00 | 0.00 | 55 | 1015.7 |
| 20260508015035 | 51 | 315 | 0.0 | 1.0 | 0.00 | 0.00 | 0.00 | 55 | 1015.5 |
| 20260508014534 | 51 | 315 | 0.0 | 1.0 | 0.00 | 0.00 | 0.00 | 55 | 1015.5 |
| 20260508014034 | 52 | 315 | 0.0 | 1.0 | 0.00 | 0.00 | 0.00 | 55 | 1015.5 |
| 20260508013533 | 52 | 315 | 0.0 | 0.0 | 0.00 | 0.00 | 0.00 | 54 | 1015.5 |
| 20260508013033 | 53 | 315 | 0.0 | 0.0 | 0.00 | 0.00 | 0.00 | 54 | 1015.4 |
| 20260508012536 | 53 | 315 | 0.0 | 0.0 | 0.00 | 0.00 | 0.00 | 51 | 1015.3 |
| 20260508012035 | 53 | 315 | 0.0 | 0.0 | 0.00 | 0.00 | 0.00 | 51 | 1015.3 |
| 20260508011543 | 54 | 315 | 0.0 | 0.0 | 0.00 | 0.00 | 0.00 | 50 | 1015.3 |
| 20260508011035 | 54 | 315 | 0.0 | 0.0 | 0.00 | 0.00 | 0.00 | 50 | 1015.2 |
| 20260508010532 | 54 | 315 | 0.0 | 2.0 | 0.00 | 0.00 | 0.00 | 49 | 1015.1 |
| 20260508010038 | 55 | 315 | 0.0 | 2.0 | 0.00 | 0.00 | 0.00 | 49 | 1015.1 |
| 20260508005533 | 55 | 315 | 0.0 | 1.0 | 0.00 | 0.00 | 0.00 | 49 | 1015.0 |
| 20260508005034 | 55 | 315 | 0.0 | 1.0 | 0.00 | 0.00 | 0.00 | 49 | 1015.0 |
| 20260508004538 | 56 | 315 | 0.0 | 1.0 | 0.00 | 0.00 | 0.00 | 48 | 1014.8 |
| 20260508004031 | 56 | 315 | 0.0 | 2.0 | 0.00 | 0.00 | 0.00 | 47 | 1014.8 |
| 20260508003531 | 56 | 315 | 0.0 | 2.0 | 0.00 | 0.00 | 0.00 | 46 | 1014.9 |
| 20260508003032 | 56 | 315 | 0.0 | 0.0 | 0.00 | 0.00 | 0.00 | 46 | 1014.8 |
| 20260508002533 | 57 | 315 | 0.0 | 1.0 | 0.00 | 0.00 | 0.00 | 46 | 1014.8 |
| 20260508002031 | 57 | 315 | 0.0 | 1.0 | 0.00 | 0.00 | 0.00 | 47 | 1014.7 |
| 20260508001534 | 57 | 315 | 0.0 | 2.0 | 0.00 | 0.00 | 0.00 | 46 | 1014.7 |
| 20260508001031 | 57 | 315 | 1.0 | 3.0 | 0.00 | 0.00 | 0.00 | 45 | 1014.7 |
| 20260508000533 | 58 | 315 | 0.0 | 3.0 | 0.00 | 0.00 | 0.00 | 46 | 1014.7 |
| 20260508000030 | 58 | 315 | 1.0 | 5.0 | 0.00 | 0.00 | 0.00 | 45 | 1014.7 |
| 20260507235529 | 58 | 315 | 3.0 | 5.0 | 0.00 | 0.00 | 0.00 | 44 | 1014.6 |
| 20260507235029 | 59 | 316 | 2.0 | 8.0 | 0.00 | 0.00 | 0.00 | 45 | 1014.5 |
| 20260507234535 | 59 | 315 | 2.0 | 5.0 | 0.00 | 0.00 | 0.00 | 43 | 1014.5 |
| 20260507234029 | 60 | 315 | 2.0 | 6.0 | 0.00 | 0.00 | 0.00 | 44 | 1014.5 |
| 20260507233529 | 60 | 315 | 2.0 | 6.0 | 0.00 | 0.00 | 0.00 | 42 | 1014.5 |
| 20260507233033 | 60 | 315 | 3.0 | 9.0 | 0.00 | 0.00 | 0.00 | 42 | 1014.4 |
| 20260507232528 | 60 | 294 | 3.0 | 9.0 | 0.00 | 0.00 | 0.00 | 43 | 1014.4 |
| 20260507232028 | 60 | 282 | 3.0 | 9.0 | 0.00 | 0.00 | 0.00 | 45 | 1014.4 |
| 20260507231531 | 60 | 273 | 3.0 | 7.0 | 0.00 | 0.00 | 0.00 | 42 | 1014.5 |
| 20260507231028 | 60 | 317 | 2.0 | 9.0 | 0.00 | 0.00 | 0.00 | 43 | 1014.4 |
| 20260507230530 | 60 | 309 | 4.0 | 10.0 | 0.00 | 0.00 | 0.00 | 42 | 1014.4 |
| 20260507230027 | 60 | 345 | 4.0 | 10.0 | 0.00 | 0.00 | 0.00 | 44 | 1014.4 |
| 20260507225527 | 61 | 342 | 4.0 | 10.0 | 0.00 | 0.00 | 0.00 | 43 | 1014.5 |
| 20260507225027 | 61 | 347 | 3.0 | 9.0 | 0.00 | 0.00 | 0.00 | 44 | 1014.5 |
| 20260507224527 | 61 | 355 | 2.0 | 8.0 | 0.00 | 0.00 | 0.00 | 41 | 1014.5 |
| 20260507224030 | 61 | 5 | 3.0 | 9.0 | 0.00 | 0.00 | 0.00 | 43 | 1014.5 |
| 20260507223529 | 61 | 44 | 5.0 | 9.0 | 0.00 | 0.00 | 0.00 | 41 | 1014.5 |
| 20260507223026 | 61 | 35 | 3.0 | 12.0 | 0.00 | 0.00 | 0.00 | 43 | 1014.6 |
| 20260507222526 | 61 | 318 | 4.0 | 12.0 | 0.00 | 0.00 | 0.00 | 43 | 1014.5 |
| 20260507222025 | 61 | 355 | 4.0 | 9.0 | 0.00 | 0.00 | 0.00 | 43 | 1014.6 |
| 20260507221526 | 61 | 324 | 3.0 | 13.0 | 0.00 | 0.00 | 0.00 | 45 | 1014.5 |
| 20260507221025 | 61 | 10 | 5.0 | 13.0 | 0.00 | 0.00 | 0.00 | 41 | 1014.6 |
| 20260507220524 | 61 | 311 | 7.0 | 13.0 | 0.00 | 0.00 | 0.00 | 43 | 1014.4 |
| 20260507220024 | 61 | 347 | 4.0 | 11.0 | 0.00 | 0.00 | 0.00 | 42 | 1014.6 |
| 20260507215524 | 61 | 322 | 4.0 | 11.0 | 0.00 | 0.00 | 0.00 | 43 | 1014.5 |
| 20260507215025 | 61 | 250 | 6.0 | 14.0 | 0.00 | 0.00 | 0.00 | 41 | 1014.4 |
| 20260507214528 | 61 | 338 | 5.0 | 14.0 | 0.00 | 0.00 | 0.00 | 40 | 1014.3 |
| 20260507214023 | 61 | 318 | 4.0 | 12.0 | 0.00 | 0.00 | 0.00 | 44 | 1014.4 |
| 20260507213523 | 61 | 338 | 4.0 | 12.0 | 0.00 | 0.00 | 0.00 | 41 | 1014.4 |
| 20260507213022 | 61 | 313 | 7.0 | 14.0 | 0.00 | 0.00 | 0.00 | 40 | 1014.5 |
| 20260507212523 | 61 | 265 | 6.0 | 16.0 | 0.00 | 0.00 | 0.00 | 40 | 1014.3 |
| 20260507212026 | 61 | 307 | 7.0 | 16.0 | 0.00 | 0.00 | 0.00 | 45 | 1014.4 |
| 20260507211529 | 60 | 20 | 4.0 | 13.0 | 0.00 | 0.00 | 0.00 | 42 | 1014.3 |
| 20260507211022 | 60 | 296 | 5.0 | 15.0 | 0.00 | 0.00 | 0.00 | 41 | 1014.3 |
| 20260507210522 | 61 | 298 | 10.0 | 16.0 | 0.00 | 0.00 | 0.00 | 42 | 1014.3 |
| 20260507210022 | 61 | 319 | 9.0 | 16.0 | 0.00 | 0.00 | 0.00 | 40 | 1014.3 |
| 20260507205522 | 61 | 28 | 6.0 | 13.0 | 0.00 | 0.00 | 0.00 | 41 | 1014.2 |
| 20260507205022 | 61 | 27 | 5.0 | 11.0 | 0.00 | 0.00 | 0.00 | 42 | 1014.4 |
| 20260507204521 | 61 | 321 | 4.0 | 12.0 | 0.00 | 0.00 | 0.00 | 43 | 1014.2 |
| 20260507204020 | 61 | 340 | 1.0 | 10.0 | 0.00 | 0.00 | 0.00 | 44 | 1014.2 |
| 20260507203520 | 61 | 355 | 4.0 | 15.0 | 0.00 | 0.00 | 0.00 | 45 | 1014.2 |
| 20260507203021 | 61 | 5 | 5.0 | 16.0 | 0.00 | 0.00 | 0.00 | 43 | 1014.3 |
| 20260507202520 | 61 | 344 | 5.0 | 13.0 | 0.00 | 0.00 | 0.00 | 45 | 1014.2 |
| 20260507202021 | 61 | 34 | 8.0 | 13.0 | 0.00 | 0.00 | 0.00 | 42 | 1014.1 |
| 20260507201520 | 61 | 44 | 4.0 | 13.0 | 0.00 | 0.00 | 0.00 | 41 | 1014.1 |
| 20260507201019 | 61 | 313 | 8.0 | 13.0 | 0.00 | 0.00 | 0.00 | 44 | 1014.1 |
| 20260507200518 | 61 | 315 | 6.0 | 15.0 | 0.00 | 0.00 | 0.00 | 46 | 1014.3 |
| 20260507200018 | 60 | 279 | 8.0 | 15.0 | 0.00 | 0.00 | 0.00 | 43 | 1014.2 |
| 20260507195516 | 61 | 290 | 5.0 | 12.0 | 0.00 | 0.00 | 0.00 | 46 | 1014.3 |
| 20260507195017 | 61 | 281 | 5.0 | 12.0 | 0.00 | 0.00 | 0.00 | 42 | 1014.5 |
| 20260507194516 | 60 | 321 | 4.0 | 13.0 | 0.00 | 0.00 | 0.00 | 42 | 1014.3 |
| 20260507194015 | 60 | 312 | 6.0 | 17.0 | 0.00 | 0.00 | 0.00 | 42 | 1014.5 |
| 20260507193516 | 60 | 360 | 8.0 | 17.0 | 0.00 | 0.00 | 0.00 | 43 | 1014.5 |
| 20260507193116 | 60 | 348 | 7.0 | 15.0 | 0.00 | 0.00 | 0.00 | 42 | 1014.4 |
| 20260507192613 | 60 | 267 | 8.0 | 15.0 | 0.00 | 0.00 | 0.00 | 46 | 1014.4 |
| 20260507192013 | 60 | 311 | 6.0 | 13.0 | 0.00 | 0.00 | 0.00 | 49 | 1014.5 |
| 20260507191513 | 60 | 351 | 7.0 | 13.0 | 0.00 | 0.00 | 0.00 | 47 | 1014.4 |
| 20260507191013 | 59 | 313 | 4.0 | 15.0 | 0.00 | 0.00 | 0.00 | 45 | 1014.4 |